• In Hungary
  • List of Countries
  • For 7 days
  • Water Temperature
  • Satellite Maps
  • Weather Map
  • News
  • Weather Widgets
  • user-avatar
    Login

    Hourly Weather Sofia

    Today, 21 August, Tuesday

    Time Temperature Precipitation Wind Pressure Humidity
    00:00 +19°C° 0 mm 1 mps 711 mmHg 70%
    01:00 +18°C° 0 mm 1 mps 711 mmHg 71%
    02:00 +19°C° 0 mm 1 mps 711 mmHg 72%
    03:00 +18°C° 0 mm 1 mps 711 mmHg 73%
    04:00 +18°C° 0 mm 1 mps 711 mmHg 74%
    05:00 +18°C° 0 mm 1 mps 711 mmHg 74%
    06:00 +20°C° 0 mm 1 mps 711 mmHg 68%
    07:00 +22°C° 0 mm 1 mps 712 mmHg 62%
    08:00 +24°C° 0 mm 1 mps 712 mmHg 54%
    09:00 +26°C° 0 mm 1 mps 712 mmHg 50%
    10:00 +27°C° 0 mm 2 mps 712 mmHg 45%
    11:00 +29°C° 0 mm 3 mps 712 mmHg 40%
    12:00 +30°C° 0 mm 3 mps 712 mmHg 38%
    13:00 +30°C° 0 mm 3 mps 712 mmHg 36%
    14:00 +31°C° 0 mm 3 mps 712 mmHg 34%
    15:00 +30°C° 0 mm 3 mps 712 mmHg 35%
    16:00 +30°C° 0 mm 3 mps 711 mmHg 36%
    17:00 +30°C° 0 mm 3 mps 711 mmHg 37%
    18:00 +27°C° 0 mm 3 mps 711 mmHg 44%
    19:00 +25°C° 0 mm 2 mps 711 mmHg 51%
    20:00 +23°C° 0 mm 2 mps 711 mmHg 58%
    21:00 +22°C° 0 mm 1 mps 711 mmHg 60%
    22:00 +21°C° 0 mm 1 mps 711 mmHg 62%
    23:00 +20°C° 0 mm 1 mps 712 mmHg 64%

    Tomorrow, 22 August, Wednesday

    Time Temperature Precipitation Wind Pressure Humidity
    00:00 +20°C° 0 mm 1 mps 712 mmHg 64%
    01:00 +19°C° 0 mm 1 mps 712 mmHg 65%
    02:00 +19°C° 0 mm 1 mps 712 mmHg 66%
    03:00 +19°C° 0 mm 1 mps 712 mmHg 66%
    04:00 +18°C° 0 mm 1 mps 712 mmHg 66%
    05:00 +18°C° 0 mm 1 mps 712 mmHg 66%
    06:00 +20°C° 0 mm 1 mps 712 mmHg 60%
    07:00 +22°C° 0 mm 1 mps 713 mmHg 54%
    08:00 +24°C° 0 mm 1 mps 713 mmHg 48%
    09:00 +26°C° 0 mm 1 mps 713 mmHg 43%
    10:00 +28°C° 0 mm 2 mps 713 mmHg 38%
    11:00 +30°C° 0 mm 3 mps 714 mmHg 33%
    12:00 +30°C° 0 mm 3 mps 713 mmHg 32%
    13:00 +31°C° 0 mm 3 mps 713 mmHg 31%
    14:00 +31°C° 0 mm 3 mps 713 mmHg 30%
    15:00 +31°C° 0 mm 3 mps 712 mmHg 31%
    16:00 +31°C° 0 mm 3 mps 712 mmHg 32%
    17:00 +30°C° 0 mm 3 mps 712 mmHg 34%
    18:00 +28°C° 0 mm 3 mps 712 mmHg 40%
    19:00 +25°C° 0 mm 2 mps 712 mmHg 46%
    20:00 +23°C° 0 mm 2 mps 712 mmHg 52%
    21:00 +21°C° 0 mm 2 mps 712 mmHg 54%
    22:00 +21°C° 0 mm 1 mps 712 mmHg 56%
    23:00 +21°C° 0 mm 1 mps 712 mmHg 58%

    Day after tomorrow, 23 August, Thursday

    Time Temperature Precipitation Wind Pressure Humidity
    00:00 +20°C° 0 mm 1 mps 712 mmHg 58%
    01:00 +19°C° 0 mm 1 mps 712 mmHg 57%
    02:00 +19°C° 0 mm 1 mps 712 mmHg 57%
    03:00 +19°C° 0 mm 1 mps 712 mmHg 55%
    04:00 +18°C° 0 mm 1 mps 712 mmHg 54%
    05:00 +18°C° 0 mm 1 mps 712 mmHg 52%
    06:00 +20°C° 0 mm 1 mps 712 mmHg 48%
    07:00 +22°C° 0 mm 1 mps 712 mmHg 44%
    08:00 +24°C° 0 mm 1 mps 712 mmHg 40%
    09:00 +25°C° 0 mm 2 mps 713 mmHg 38%
    10:00 +27°C° 0 mm 2 mps 713 mmHg 36%
    11:00 +29°C° 0 mm 3 mps 713 mmHg 34%
    12:00 +29°C° 0 mm 3 mps 712 mmHg 33%
    13:00 +30°C° 0 mm 3 mps 712 mmHg 33%
    14:00 +30°C° 0 mm 3 mps 712 mmHg 32%
    15:00 +30°C° 0 mm 3 mps 711 mmHg 33%
    16:00 +30°C° 0 mm 3 mps 711 mmHg 35%
    17:00 +29°C° 0 mm 3 mps 711 mmHg 36%
    18:00 +27°C° 0 mm 3 mps 710 mmHg 43%
    19:00 +25°C° 0 mm 2 mps 710 mmHg 51%
    20:00 +21°C° 0 mm 2 mps 710 mmHg 58%
    21:00 +22°C° 0 mm 1 mps 710 mmHg 61%
    22:00 +21°C° 0 mm 1 mps 710 mmHg 64%
    23:00 +20°C° 0 mm 1 mps 710 mmHg 67%

    24 August, Friday

    Time Temperature Precipitation Wind Pressure Humidity
    00:00 +20°C° 0 mm 1 mps 710 mmHg 68%
    01:00 +19°C° 0 mm 1 mps 710 mmHg 70%
    02:00 +19°C° 0 mm 1 mps 710 mmHg 71%
    03:00 +19°C° 0 mm 1 mps 710 mmHg 73%
    04:00 +18°C° 0 mm 1 mps 710 mmHg 75%
    05:00 +18°C° 0 mm 1 mps 709 mmHg 76%
    06:00 +20°C° 0 mm 1 mps 710 mmHg 69%
    07:00 +22°C° 0 mm 1 mps 710 mmHg 62%
    08:00 +24°C° 0 mm 1 mps 710 mmHg 55%
    09:00 +26°C° 0 mm 1 mps 710 mmHg 49%
    10:00 +28°C° 0 mm 1 mps 710 mmHg 43%
    11:00 +29°C° 0 mm 2 mps 710 mmHg 37%
    12:00 +30°C° 0 mm 2 mps 710 mmHg 35%
    13:00 +31°C° 0 mm 2 mps 709 mmHg 34%
    14:00 +31°C° 0 mm 2 mps 709 mmHg 32%
    15:00 +31°C° 0 mm 2 mps 709 mmHg 34%
    16:00 +30°C° 0 mm 2 mps 708 mmHg 35%
    17:00 +29°C° 0 mm 2 mps 708 mmHg 37%
    18:00 +27°C° 0 mm 1 mps 708 mmHg 43%
    19:00 +25°C° 0 mm 1 mps 708 mmHg 49%
    20:00 +22°C° 0 mm 1 mps 707 mmHg 55%
    21:00 +22°C° 0 mm 1 mps 708 mmHg 57%
    22:00 +21°C° 0 mm 1 mps 708 mmHg 59%
    23:00 +20°C° 0 mm 1 mps 708 mmHg 60%

    25 August, Saturday

    Time Temperature Precipitation Wind Pressure Humidity
    00:00 +20°C° 0 mm 1 mps 708 mmHg 61%
    01:00 +20°C° 0 mm 1 mps 707 mmHg 62%
    02:00 +19°C° 0 mm 1 mps 707 mmHg 63%
    03:00 +19°C° 0 mm 1 mps 707 mmHg 64%
    04:00 +19°C° 0 mm 1 mps 707 mmHg 65%
    05:00 +19°C° 0 mm 1 mps 707 mmHg 65%
    06:00 +21°C° 0 mm 1 mps 707 mmHg 60%
    07:00 +22°C° 0 mm 1 mps 708 mmHg 55%
    08:00 +24°C° 0 mm 1 mps 708 mmHg 50%
    09:00 +27°C° 0 mm 1 mps 708 mmHg 44%
    10:00 +27°C° 0 mm 0 mps 708 mmHg 38%
    11:00 +30°C° 0 mm 0 mps 709 mmHg 32%
    12:00 +30°C° 0 mm 0 mps 708 mmHg 31%
    13:00 +31°C° 0 mm 0 mps 708 mmHg 30%
    14:00 +33°C° 0 mm 1 mps 707 mmHg 29%
    15:00 +32°C° 0 mm 1 mps 707 mmHg 31%
    16:00 +31°C° 0 mm 1 mps 706 mmHg 33%
    17:00 +30°C° 0 mm 1 mps 706 mmHg 35%
    18:00 +28°C° 0.1 mm 1 mps 706 mmHg 41%
    19:00 +26°C° 0.1 mm 1 mps 706 mmHg 46%
    20:00 +24°C° 0.1 mm 1 mps 706 mmHg 52%
    21:00 +23°C° 0.1 mm 1 mps 706 mmHg 55%
    22:00 +22°C° 0.1 mm 1 mps 706 mmHg 58%
    23:00 +21°C° 0.1 mm 1 mps 706 mmHg 60%

    26 August, Sunday

    Time Temperature Precipitation Wind Pressure Humidity
    00:00 +21°C° 0 mm 1 mps 706 mmHg 61%
    01:00 +20°C° 0 mm 1 mps 706 mmHg 62%
    02:00 +20°C° 0 mm 1 mps 706 mmHg 63%
    03:00 +20°C° 0 mm 1 mps 705 mmHg 63%
    04:00 +19°C° 0 mm 1 mps 705 mmHg 64%
    05:00 +19°C° 0 mm 1 mps 705 mmHg 64%
    06:00 +21°C° 0 mm 1 mps 706 mmHg 59%
    07:00 +23°C° 0 mm 1 mps 706 mmHg 54%
    08:00 +25°C° 0 mm 1 mps 706 mmHg 49%
    09:00 +27°C° 0 mm 1 mps 706 mmHg 43%
    10:00 +29°C° 0 mm 1 mps 707 mmHg 37%
    11:00 +32°C° 0 mm 1 mps 707 mmHg 31%
    12:00 +32°C° 0 mm 1 mps 706 mmHg 29%
    13:00 +33°C° 0 mm 1 mps 706 mmHg 27%
    14:00 +35°C° 0 mm 2 mps 705 mmHg 25%
    15:00 +34°C° 0 mm 2 mps 705 mmHg 27%
    16:00 +32°C° 0 mm 2 mps 704 mmHg 30%
    17:00 +31°C° 0 mm 2 mps 704 mmHg 32%
    18:00 +29°C° 0 mm 2 mps 704 mmHg 36%
    19:00 +27°C° 0 mm 2 mps 704 mmHg 41%
    20:00 +25°C° 0 mm 1 mps 704 mmHg 46%
    21:00 +24°C° 0 mm 1 mps 704 mmHg 49%
    22:00 +23°C° 0 mm 1 mps 704 mmHg 53%
    23:00 +22°C° 0 mm 1 mps 704 mmHg 56%
    Show more